Rbgn^[z[y[W
メイン
   新天体発見情報
     Comet P/2010 J5 = 2017 B2 (McNaught)
投稿するにはまず登録を

スレッド表示 | 新しいものから 前のトピック | 次のトピック | 下へ
投稿者 スレッド
佐藤裕久
投稿日時: 2017-2-4 15:40
モデレータ
登録日: 2005-6-12
居住地: 日本
投稿: 1765
オンライン
Comet P/2010 J5 = 2017 B2 (McNaught)

J. V. Scotti (月惑星研究所、Arizona大学)の通報によると、Kitt PeakにあるSpacewatch 1.8-m 
f/2.7 反射望遠鏡で得たR-バンドCCD画像からP/2010 J5 (IAUC 9148, 9157を参照)を検出した。
この彗星は全ての画像で暗く恒星状であった。1月26日、この彗星は、大変暗く、写真の極限いっぱ
いで、1月29日は長時間露出をしたが、貧弱なシーイングだった。
ICQ's 2016 Comet Handbook (p. H15)の中野主一氏予報に対して、Delta(T)は、+0.01 dayであった。

検出位置は次のとおり、

     2017 UT             R.A. (2000) Decl.       Mag.   Observer
     Jan. 26.51769   11 44 35.37   +11 34 39.5   22.5   Scotti
          26.52517   11 44 35.24   +11 34 40.5            "
          26.53265   11 44 35.19   +11 34 41.9   22.4     "
          29.49971   11 43 59.36   +11 44 11.9   22.2     "
          29.51094   11 43 59.15   +11 44 14.8   22.1     "
          29.52216   11 43 59.08   +11 44 16.3   21.8     "

連結軌道要素と位置推算表は次のとおり、

Orbital elements:
    P/2010 J5 (McNaught)
Epoch 2009 Nov. 25.0 TT = JDT 2455160.5
T 2009 Nov. 6.68711 TT                                  MPCW
q   3.7487176            (2000.0)            P               Q
n   0.11831322     Peri.  150.39020     -0.80473495     +0.58206380
a   4.1094200      Node    65.66615     -0.56670680     -0.69475551
e   0.0877745      Incl.    7.35436     -0.17676273     -0.42251215
P   8.33
From 103 observations 2005 Nov. 1-2017 Jan. 29, mean residual 0".5.

    P/2010 J5 (McNaught)
Epoch 2018 Feb. 11.0 TT = JDT 2458160.5
T 2018 Jan. 29.25380 TT                                 MPCW
q   3.7508721            (2000.0)            P               Q
n   0.11768068     Peri.  146.69923     -0.84188253     +0.52690528
a   4.1241325      Node    65.52121     -0.51889139     -0.73096463
e   0.0905064      Incl.    7.36319     -0.14827515     -0.43366063
P   8.38
From 103 observations 2005 Nov. 1-2017 Jan. 29, mean residual 0".5.

    P/2010 J5 (McNaught)
Epoch 2026 Mar. 21.0 TT = JDT 2461120.5
T 2026 Mar. 18.03954 TT                                 MPCW
q   3.6944624            (2000.0)            P               Q
n   0.11949260     Peri.  140.13864     -0.89825990     +0.42375150
a   4.0823357      Node    65.29754     -0.42877420     -0.78697480
e   0.0950126      Incl.    7.36530     -0.09634230     -0.44844769
P   8.25
From 103 observations 2005 Nov. 1-2017 Jan. 29, mean residual 0".5.

    P/2010 J5 (McNaught)
Epoch 2017 Feb. 16.0 TT = JDT 2457800.5
T 2018 Feb. 8.61316 TT                                  MPCW
q   3.7488275            (2000.0)            P               Q
n   0.11827509     Peri.  148.05402     -0.82829396     +0.54802978
a   4.1103032      Node    65.61454     -0.53723140     -0.71773160
e   0.0879438      Incl.    7.35440     -0.15909598     -0.42956339
P   8.33
From 103 observations 2005 Nov. 1-2017 Jan. 29, mean residual 0".5.

Ephemeris:
    P/2010 J5 (McNaught)
Date    TT    R. A. (2000) Decl.     Delta      r     Elong.  Phase   m1
2016 12 30    11 42 58.8 +10 46 06   3.4919  3.8875   106.5    14.0  22.6
...
2017 01 14    11 45 26.5 +11 03 11   3.2774  3.8783   121.1    12.5  22.5
...
2017 01 22    11 45 12.6 +11 21 37   3.1748  3.8734   129.3    11.3  22.4
...
2017 01 28    11 44 18.7 +11 39 19   3.1052  3.8699   135.5    10.3  22.3
2017 01 29    11 44 06.1 +11 42 34   3.0942  3.8693   136.6    10.1  22.3
2017 01 30    11 43 52.5 +11 45 53   3.0835  3.8687   137.6     9.9  22.3
...
2017 02 05    11 42 10.3 +12 07 17   3.0239  3.8652   144.0     8.6  22.3
...
2017 02 13    11 39 02.8 +12 38 54   2.9577  3.8605   152.5     6.8  22.2
...
2017 02 28    11 31 03.5 +13 41 56   2.8801  3.8521   167.1     3.3  22.2

(CBET 4352、MPEC 2017-B123)
スレッド表示 | 新しいものから 前のトピック | 次のトピック | トップ

投稿するにはまず登録を
 
© 1999-2013 Tsutomu Seki.